This is the latest recevied weather packets stored in our database for station/object DM8MH-13. If no packets are shown the sender has not sent any weather packets the latest 10 day(s).
| Time | Temp. | Humidity | Pressure | Rain* | Wind** | Luminosity | Snow |
|---|---|---|---|---|---|---|---|
| 1778001070 | 18.33° C | 73% | 1005.6 hPa | 0 mm | - | 32 W/m² | - |
| 1778000470 | 18.89° C | 73% | 1005.6 hPa | 0 mm | - | 23 W/m² | - |
| 1777999870 | 18.89° C | 72% | 1005.7 hPa | 0 mm | - | 24 W/m² | - |
| 1777999270 | 18.89° C | 70% | 1005.6 hPa | 0 mm | - | 105 W/m² | - |
| 1777998670 | 18.89° C | 70% | 1005.8 hPa | 0 mm | - | 152 W/m² | - |
| 1777998070 | 19.44° C | 70% | 1005.8 hPa | 0 mm | - | 156 W/m² | - |
| 1777997470 | 19.44° C | 69% | 1005.8 hPa | 0 mm | - | 169 W/m² | - |
| 1777996870 | 20° C | 69% | 1005.9 hPa | 0 mm | - | 141 W/m² | - |
| 1777996270 | 20° C | 68% | 1005.8 hPa | 0 mm | - | 133 W/m² | - |
| 1777995672 | 20° C | 68% | 1006 hPa | 0 mm | - | 260 W/m² | - |
| 1777995078 | 20° C | 68% | 1006 hPa | 0 mm | - | 277 W/m² | - |
| 1777994473 | 20° C | 68% | 1006.1 hPa | 0 mm | - | 353 W/m² | - |
| 1777993872 | 20.56° C | 67% | 1006.1 hPa | 0 mm | - | 178 W/m² | - |
| 1777993273 | 20.56° C | 68% | 1006.2 hPa | 0 mm | - | 442 W/m² | - |
| 1777992673 | 20.56° C | 66% | 1006.3 hPa | 0 mm | - | 211 W/m² | - |
| 1777992074 | 20.56° C | 67% | 1006.4 hPa | 0 mm | - | 553 W/m² | - |
| 1777991474 | 20.56° C | 68% | 1006.6 hPa | 0 mm | - | 575 W/m² | - |
| 1777990873 | 20° C | 67% | 1006.6 hPa | 0 mm | - | 239 W/m² | - |
| 1777989673 | 20.56° C | 66% | 1006.9 hPa | 0 mm | - | 502 W/m² | - |
| 1777989073 | 20.56° C | 68% | 1006.9 hPa | 0 mm | - | 450 W/m² | - |
| 1777988474 | 20.56° C | 69% | 1007.1 hPa | 0 mm | - | 272 W/m² | - |
| 1777987873 | 20.56° C | 68% | 1007.1 hPa | 0 mm | - | 276 W/m² | - |
| 1777987273 | 20.56° C | 68% | 1007.1 hPa | 0 mm | - | 335 W/m² | - |
| 1777986673 | 20° C | 70% | 1007.1 hPa | 0 mm | - | 295 W/m² | - |
| 1777986073 | 20° C | 71% | 1007.3 hPa | 0 mm | - | 762 W/m² | - |
* Rain latest hour (hover to see other rain measurements)
** Current wind speed in m/s (hover to see current wind gust speed)